Showing default

FLOCK 4H 12, 66715

Orbit data source: Space-Track

FLOCK 4H 12, 66715 is a payload satellite owned by Planet (US) in SSO that was launched on Fri, 28 Nov 2025 UTC via an FALCON 9 launch vehicle from the Air Force Western Test Range (AFWTR). Payload-class satellites include a variety of spacecraft equipped with specific instruments for various scientific and technological missions. These include communications satellites like Starlink; space stations such as the ISS; scientific satellites like the Hubble; Earth observation satellites from companies like Planet Labs, Umbra, and HawkEye 360; GPS; miniature CubeSats for education and research; and military/defense satellites.

Loading next visibility...
Identifier
66715, 2025-276BB
Orbit
SSO
Country
Flag of USUS
Related business
Manufacturer
Planet
Mission
Operational Commercial Imaging
Bus & Motor
CUBESAT 3U, Unknown motor
Mass
5.7 kg wet, 5.7 kg dry
Launch date (UTC)
2025-11-28 (2 months ago)
Launch vehicle
FALCON 9
Launch site
Air Force Western Test Range (AFWTR)
Object type
Payload
Rocket body
Debris
Shape & HBR
Box + 2 Pan, 1.0 m
Radar Cross Section
0.072 m²

Expand to show TLE details & history
Last TLE update: 23 hours ago

TLE from 23 hours ago
0 FLOCK 4H 12
1 66715U 25276BB  26034.25885987  .00007032  00000-0  34180-3 0  9995
2 66715  97.4328 110.1483 0003611  84.4854 275.6792 15.18730734 10404
Epoch: 2026-02-03T06:12Z
TLE epoch observation values (Epoch: 2026-02-03T06:12:45.492Z)
Latitude
-0.00006°
Longitude
-116.48361°
Altitude
512.518 km
Speed
7.608 km/s
True Right ascension
07h 20m 35s
True Declination
0° 00' 00"
Sunlit
Object was in full shadow at epoch
Visualization orbit readout
Latitude
Unknown
Longitude
Unknown
Altitude
Unknown
Speed
Unknown
Apparent Right ascension
Unknown
Apparent Declination
Unknown
Sunlit
N/A
Visualization observer readout
Local Sidereal Time
07:05:30
Azimuth
Unknown
Elevation
Unknown
Doppler factor
Unknown
Orbital elements
Apogee altitude
509.13 km
Perigee altitude
504.158 km
Semi-major axis
6,884.781 km
Eccentricity
0.00036
Inclination
97.4328°
RAAN
110.1483°
Arg. of periapsis
84.4854°
True anomaly
275.63802°
Mean anomaly
275.6792°
Eccentric anomaly
275.65861°
Mean motion
3.79934 °/min
Orbital period
94.75 mins
BSTAR
0.0003418
Loading maneuver chart data...
Computing Atmospheric mass density...
Loading historical data...
Loading historical data...
Loading historical data...
Loading historical data...
Loading historical data...
Loading historical data...
Loading historical data...

Documentation

Showing up to 5 results
|